When you browse on this site, cookies collect data to enhance your experience and personalize the content and advertising you see.
Visit our Privacy Policy to learn more. By continuing to use the site, you agree to this use of cookies and data.
  • Em Portugal
  • Lista de países
  • Para 7 dias
  • Temperatura da água
  • Mapa do tempo
  • Widgets de tempo
  • user-avatar
    Iniciar Sessão

    Previsão horária em Urevy

    Hoje, 24 Janeiro, Sexta-feira

    Tempo Temperatura Precipitação Vento Pressão Humidade
    00:00 -5°C° 0 mm 3 m/s 739 mmHg 80%
    01:00 -5°C° 0 mm 4 m/s 738 mmHg 85%
    02:00 -4°C° 0 mm 4 m/s 737 mmHg 91%
    03:00 -4°C° 0.1 mm 4 m/s 736 mmHg 91%
    04:00 -4°C° 0.1 mm 4 m/s 736 mmHg 91%
    05:00 -5°C° 0.1 mm 5 m/s 735 mmHg 92%
    06:00 -4°C° 0.4 mm 5 m/s 734 mmHg 93%
    07:00 -4°C° 0.4 mm 5 m/s 733 mmHg 94%
    08:00 -3°C° 0 mm 4 m/s 733 mmHg 95%
    09:00 -2°C° 0.2 mm 5 m/s 733 mmHg 94%
    10:00 -1°C° 0.2 mm 5 m/s 732 mmHg 93%
    11:00 0°C° 0.2 mm 5 m/s 732 mmHg 93%
    12:00 0°C° 0.1 mm 5 m/s 732 mmHg 93%
    13:00 0°C° 0.1 mm 5 m/s 731 mmHg 93%
    14:00 0°C° 0.1 mm 5 m/s 731 mmHg 93%
    15:00 0°C° 0.2 mm 5 m/s 730 mmHg 94%
    16:00 0°C° 0.2 mm 4 m/s 730 mmHg 95%
    17:00 0°C° 0.2 mm 4 m/s 730 mmHg 97%
    18:00 0°C° 0.1 mm 4 m/s 730 mmHg 97%
    19:00 +1°C° 0.1 mm 3 m/s 729 mmHg 97%
    20:00 +1°C° 0.1 mm 3 m/s 729 mmHg 96%
    21:00 0°C° 0.6 mm 4 m/s 729 mmHg 95%
    22:00 0°C° 0.6 mm 5 m/s 729 mmHg 94%
    23:00 -1°C° 0.6 mm 6 m/s 729 mmHg 92%

    Amanhã, 25 Janeiro, Sábado

    Tempo Temperatura Precipitação Vento Pressão Humidade
    00:00 0°C° 0.1 mm 5 m/s 730 mmHg 91%
    01:00 -1°C° 0.1 mm 5 m/s 730 mmHg 90%
    02:00 -1°C° 0.1 mm 4 m/s 730 mmHg 89%
    03:00 -1°C° 0 mm 4 m/s 730 mmHg 90%
    04:00 -2°C° 0 mm 4 m/s 729 mmHg 90%
    05:00 -2°C° 0 mm 4 m/s 729 mmHg 91%
    06:00 -2°C° 0 mm 4 m/s 729 mmHg 88%
    07:00 -1°C° 0 mm 4 m/s 729 mmHg 86%
    08:00 -1°C° 0 mm 5 m/s 728 mmHg 83%
    09:00 -2°C° 0.1 mm 6 m/s 728 mmHg 80%
    10:00 -1°C° 0.1 mm 7 m/s 728 mmHg 76%
    11:00 -1°C° 0.1 mm 8 m/s 728 mmHg 73%
    12:00 -2°C° 0.1 mm 7 m/s 728 mmHg 70%
    13:00 -2°C° 0.1 mm 7 m/s 728 mmHg 67%
    14:00 -3°C° 0.1 mm 7 m/s 729 mmHg 63%
    15:00 -3°C° 0 mm 7 m/s 729 mmHg 66%
    16:00 -4°C° 0 mm 6 m/s 730 mmHg 68%
    17:00 -4°C° 0 mm 6 m/s 730 mmHg 71%
    18:00 -4°C° 0 mm 6 m/s 731 mmHg 72%
    19:00 -4°C° 0 mm 6 m/s 731 mmHg 74%
    20:00 -6°C° 0 mm 7 m/s 731 mmHg 76%
    21:00 -6°C° 0 mm 7 m/s 732 mmHg 77%
    22:00 -6°C° 0 mm 7 m/s 733 mmHg 77%
    23:00 -6°C° 0 mm 7 m/s 734 mmHg 78%

    Depois de amanhã, 26 Janeiro, Domingo

    Tempo Temperatura Precipitação Vento Pressão Humidade
    00:00 -5°C° 0 mm 6 m/s 735 mmHg 78%
    01:00 -5°C° 0 mm 5 m/s 736 mmHg 77%
    02:00 -5°C° 0 mm 5 m/s 736 mmHg 76%
    03:00 -5°C° 0 mm 5 m/s 737 mmHg 77%
    04:00 -4°C° 0 mm 4 m/s 738 mmHg 79%
    05:00 -4°C° 0 mm 4 m/s 738 mmHg 81%
    06:00 -5°C° 0 mm 4 m/s 739 mmHg 82%
    07:00 -5°C° 0 mm 3 m/s 739 mmHg 83%
    08:00 -5°C° 0 mm 3 m/s 739 mmHg 84%
    09:00 -4°C° 0 mm 3 m/s 739 mmHg 81%
    10:00 -4°C° 0 mm 3 m/s 739 mmHg 77%
    11:00 -3°C° 0 mm 4 m/s 739 mmHg 74%
    12:00 -3°C° 0.2 mm 4 m/s 739 mmHg 80%
    13:00 -4°C° 0.2 mm 5 m/s 738 mmHg 86%
    14:00 -4°C° 0.2 mm 5 m/s 738 mmHg 92%
    15:00 -2°C° 0.5 mm 5 m/s 737 mmHg 93%
    16:00 -1°C° 0.5 mm 5 m/s 737 mmHg 95%
    17:00 0°C° 0.5 mm 5 m/s 737 mmHg 96%
    18:00 0°C° 0.3 mm 5 m/s 737 mmHg 96%
    19:00 0°C° 0.3 mm 5 m/s 737 mmHg 96%
    20:00 +1°C° 0.3 mm 6 m/s 737 mmHg 96%
    21:00 +1°C° 0 mm 5 m/s 737 mmHg 94%
    22:00 +1°C° 0 mm 5 m/s 737 mmHg 93%
    23:00 +1°C° 0 mm 5 m/s 737 mmHg 92%

    27 Janeiro, Segunda-feira

    Tempo Temperatura Precipitação Vento Pressão Humidade
    00:00 +1°C° 0 mm 5 m/s 737 mmHg 92%
    01:00 +1°C° 0 mm 5 m/s 737 mmHg 93%
    02:00 +1°C° 0 mm 5 m/s 738 mmHg 94%
    03:00 0°C° 0.1 mm 4 m/s 738 mmHg 94%
    04:00 0°C° 0.1 mm 4 m/s 738 mmHg 95%
    05:00 0°C° 0.1 mm 4 m/s 738 mmHg 96%
    06:00 0°C° 0.1 mm 4 m/s 738 mmHg 96%
    07:00 0°C° 0.1 mm 4 m/s 738 mmHg 97%
    08:00 +1°C° 0.1 mm 3 m/s 738 mmHg 97%
    09:00 +1°C° 0.1 mm 3 m/s 738 mmHg 97%
    10:00 +1°C° 0.1 mm 3 m/s 738 mmHg 96%
    11:00 +1°C° 0.1 mm 3 m/s 738 mmHg 96%
    12:00 +1°C° 0.1 mm 3 m/s 738 mmHg 97%
    13:00 +1°C° 0.1 mm 3 m/s 738 mmHg 97%
    14:00 +1°C° 0.1 mm 3 m/s 738 mmHg 97%
    15:00 +1°C° 0.3 mm 3 m/s 738 mmHg 97%
    16:00 +1°C° 0.3 mm 3 m/s 738 mmHg 97%
    17:00 +1°C° 0.3 mm 3 m/s 738 mmHg 97%
    18:00 +1°C° 0.1 mm 3 m/s 738 mmHg 97%
    19:00 +2°C° 0.1 mm 2 m/s 738 mmHg 97%
    20:00 +1°C° 0.1 mm 2 m/s 738 mmHg 97%
    21:00 +1°C° 0.1 mm 2 m/s 738 mmHg 98%
    22:00 +1°C° 0.1 mm 2 m/s 738 mmHg 98%
    23:00 +1°C° 0.1 mm 2 m/s 738 mmHg 98%

    28 Janeiro, Terça-feira

    Tempo Temperatura Precipitação Vento Pressão Humidade
    00:00 +1°C° 0.1 mm 2 m/s 738 mmHg 98%
    01:00 +1°C° 0.1 mm 2 m/s 738 mmHg 98%
    02:00 +1°C° 0.1 mm 2 m/s 738 mmHg 98%
    03:00 +1°C° 0 mm 2 m/s 738 mmHg 98%
    04:00 +2°C° 0 mm 1 m/s 738 mmHg 98%
    05:00 +2°C° 0 mm 1 m/s 738 mmHg 98%
    06:00 +2°C° 0 mm 1 m/s 738 mmHg 98%
    07:00 +1°C° 0 mm 1 m/s 738 mmHg 98%
    08:00 +1°C° 0 mm 1 m/s 738 mmHg 98%
    09:00 +1°C° 0 mm 1 m/s 738 mmHg 97%
    10:00 +2°C° 0 mm 1 m/s 738 mmHg 95%
    11:00 +2°C° 0 mm 1 m/s 738 mmHg 94%
    12:00 +1°C° 0 mm 2 m/s 738 mmHg 93%
    13:00 +1°C° 0 mm 2 m/s 737 mmHg 92%
    14:00 +1°C° 0 mm 2 m/s 737 mmHg 91%
    15:00 -1°C° 0 mm 2 m/s 737 mmHg 91%
    16:00 -1°C° 0 mm 2 m/s 737 mmHg 92%
    17:00 -1°C° 0 mm 2 m/s 737 mmHg 92%
    18:00 -1°C° 0 mm 3 m/s 737 mmHg 91%
    19:00 -1°C° 0 mm 3 m/s 737 mmHg 91%
    20:00 -1°C° 0 mm 3 m/s 737 mmHg 90%
    21:00 -1°C° 0 mm 3 m/s 737 mmHg 90%
    22:00 -1°C° 0 mm 3 m/s 737 mmHg 90%
    23:00 -1°C° 0 mm 3 m/s 737 mmHg 89%

    29 Janeiro, Quarta-feira

    Tempo Temperatura Precipitação Vento Pressão Humidade
    00:00 -1°C° 0 mm 3 m/s 736 mmHg 90%
    01:00 -1°C° 0 mm 3 m/s 736 mmHg 92%
    02:00 -1°C° 0 mm 3 m/s 736 mmHg 93%
    03:00 -1°C° 0 mm 3 m/s 736 mmHg 93%
    04:00 0°C° 0 mm 3 m/s 735 mmHg 92%
    05:00 -1°C° 0 mm 4 m/s 735 mmHg 92%
    06:00 -1°C° 0 mm 4 m/s 735 mmHg 92%
    07:00 -1°C° 0 mm 4 m/s 734 mmHg 92%
    08:00 -1°C° 0 mm 4 m/s 734 mmHg 92%
    09:00 -1°C° 0 mm 4 m/s 734 mmHg 90%
    10:00 -1°C° 0 mm 5 m/s 734 mmHg 88%
    11:00 -1°C° 0 mm 5 m/s 734 mmHg 87%
    12:00 -1°C° 0 mm 5 m/s 733 mmHg 87%
    13:00 -1°C° 0 mm 5 m/s 733 mmHg 88%
    14:00 -1°C° 0 mm 5 m/s 732 mmHg 88%
    15:00 -1°C° 0.1 mm 5 m/s 732 mmHg 91%
    16:00 -1°C° 0.1 mm 5 m/s 732 mmHg 93%
    17:00 -1°C° 0.1 mm 4 m/s 732 mmHg 96%
    18:00 -1°C° 0.3 mm 4 m/s 731 mmHg 96%
    19:00 -1°C° 0.3 mm 4 m/s 731 mmHg 96%
    20:00 -1°C° 0.3 mm 4 m/s 731 mmHg 96%
    21:00 -1°C° 0.4 mm 4 m/s 730 mmHg 96%
    22:00 -1°C° 0.4 mm 4 m/s 730 mmHg 96%
    23:00 -1°C° 0.4 mm 4 m/s 730 mmHg 97%
    Mostrar mais